{"data":{"norad_id":69182,"intl_designator":"2026-114A","name":"STARLINK-37380","alt_names":[],"object_type":"PAYLOAD","status":"ACTIVE","operator":null,"country":"US","launch_date":"2026-05-25","launch_site_code":"AFETR","launch_vehicle":null,"mission":null,"orbit_class":"UNKNOWN","rcs_meters":null,"size_class":null,"mass_kg":null,"dimensions":null,"purposes":["comms"],"wikipedia_slug":null,"has_3d_model":false,"image_url":null,"decayed_at":null,"tle_current":{"epoch":"2026-09-19T23:50:19.234752Z","epoch_age_seconds":70755,"freshness":"FRESH","line1":"1 69182U 26114A   26262.99327818  .00019650  00000+0  59105-3 0  9998","line2":"2 69182  53.1578 116.4338 0001708  98.0177 262.1019 15.34406940 19367","mean_motion":15.3440694,"eccentricity":0.0001708,"inclination_deg":53.1578,"raan_deg":116.4338,"arg_perigee_deg":98.0177,"mean_anomaly_deg":262.1019,"bstar":0.00059105,"rev_number":1936,"period_min":93.847333615423,"perigee_km":461.51420115239,"apogee_km":463.85102513224,"semimajor_km":6840.8196131423,"source":"CELESTRAK","updated_at":"2026-09-20T09:00:44.095372Z"}}}